User: anonymous   Login
Location: Unspecified
(0.0000°N, 0.0000°E)
Time: 06:21:38
(UTC+00:00)
Language:

RAX-2 - Orbit

View from above orbital plane
View from above orbital plane
View from above satellite
View from above satellite

Ground track
Ground track

The orbit data is extracted from the following two-line orbital elements,

1 37853U 11061D   17264.35415015 +.00000413 +00000-0 +31695-4 0  9995
2 37853 101.7015 179.4280 0175327 165.5421 195.0898 15.01665448320592
Epoch (UTC): 21 September 2017 08:29:58
Eccentricity: 0.0175327
inclination: 101.7015°
perigee height: 440 km
apogee height: 683 km
right ascension of ascending node: 179.4280°
argument of perigee: 165.5421°
revolutions per day: 15.01665448
mean anomaly at epoch: 195.0898°
orbit number at epoch: 32059

The dashed part of the orbit path shows where the satellite is in the earth's shadow,  

DLR